TimeEDT,TemperatureF,Dew PointF,Humidity,Sea Level PressureIn,VisibilityMPH,Wind Direction,Wind SpeedMPH,Gust SpeedMPH,PrecipitationIn,Events,Conditions,WindDirDegrees,DateUTC
1:56 AM,45.0,41.0,86,30.27,9.0,North,3.5,-,N/A,,Clear,10,2013-03-11 05:56:00
2:56 AM,45.0,42.1,90,30.25,8.0,ENE,5.8,-,N/A,,Partly Cloudy,70,2013-03-11 06:56:00
3:56 AM,44.1,41.0,89,30.23,9.0,ENE,4.6,-,N/A,,Clear,60,2013-03-11 07:56:00
4:56 AM,45.0,42.1,90,30.22,9.0,East,4.6,-,N/A,,Mostly Cloudy,80,2013-03-11 08:56:00
5:56 AM,46.0,42.1,86,30.20,10.0,East,6.9,-,N/A,,Clear,90,2013-03-11 09:56:00
6:56 AM,44.1,41.0,89,30.21,10.0,Calm,Calm,-,N/A,,Clear,0,2013-03-11 10:56:00
7:56 AM,45.0,42.1,90,30.21,7.0,Calm,Calm,-,N/A,,Partly Cloudy,0,2013-03-11 11:56:00
8:56 AM,50.0,46.0,86,30.21,6.0,East,3.5,-,N/A,,Mostly Cloudy,80,2013-03-11 12:56:00
9:56 AM,53.1,46.9,80,30.21,6.0,ESE,4.6,-,N/A,,Haze,110,2013-03-11 13:56:00
10:56 AM,61.0,50.0,67,30.19,5.0,East,5.8,-,N/A,,Haze,100,2013-03-11 14:56:00
11:56 AM,66.9,50.0,54,30.17,10.0,ESE,12.7,-,N/A,,Overcast,120,2013-03-11 15:56:00
12:56 PM,69.1,48.0,47,30.16,10.0,SE,10.4,20.7,N/A,,Overcast,130,2013-03-11 16:56:00
1:56 PM,70.0,46.9,44,30.15,9.0,SSE,13.8,21.9,N/A,,Mostly Cloudy,150,2013-03-11 17:56:00
2:56 PM,68.0,46.0,45,30.13,10.0,SSE,13.8,19.6,N/A,,Scattered Clouds,160,2013-03-11 18:56:00
3:56 PM,66.9,48.0,51,30.10,10.0,ESE,13.8,-,N/A,,Scattered Clouds,120,2013-03-11 19:56:00
4:56 PM,68.0,46.9,47,30.08,10.0,SSE,12.7,23.0,N/A,,Partly Cloudy,160,2013-03-11 20:56:00
5:56 PM,64.9,48.0,54,30.07,10.0,SSE,13.8,23.0,N/A,,Mostly Cloudy,160,2013-03-11 21:56:00
6:56 PM,62.1,48.9,62,30.08,10.0,SSE,6.9,-,N/A,,Overcast,150,2013-03-11 22:56:00
7:56 PM,61.0,48.9,64,30.08,10.0,South,3.5,-,N/A,,Overcast,180,2013-03-11 23:56:00
8:56 PM,62.1,50.0,65,30.06,10.0,SSE,13.8,18.4,N/A,,Mostly Cloudy,150,2013-03-12 00:56:00
9:56 PM,62.1,52.0,70,30.05,10.0,SSE,10.4,-,N/A,,Overcast,150,2013-03-12 01:56:00
10:56 PM,62.1,53.1,72,30.01,10.0,SSE,12.7,-,N/A,,Mostly Cloudy,150,2013-03-12 02:56:00
11:56 PM,62.1,54.0,75,30.01,10.0,SSE,12.7,18.4,N/A,,Mostly Cloudy,160,2013-03-12 03:56:00